Regional Weather Roundup
Issued by NWS Green Bay, WI

Home | Current Version | Previous Version | Text Only | Print | Product List | Glossary On
Versions: 1 2 3 4 5 6 7 8 9 10 11 12 13 14 15 16 17 18 19 20 21 22 23 24 25 26 27 28 29 30 31 32 33 34 35 36 37 38 39 40 41 42 43 44 45 46 47 48 49 50
000
ASUS43 KGRB 010211
RWRGRB

NORTH-CENTRAL AND NORTHEAST WISCONSIN REGIONAL WEATHER ROUNDUP
NATIONAL WEATHER SERVICE GREEN BAY WI
900 PM CDT FRI JUL 31 2015

WIZ005-009-010>012-018-019-010300-
NORTH CENTRAL WISCONSIN

CITY           SKY/WX    TMP DP  RH WIND       PRES   REMARKS
IRONWOOD       PTCLDY    63  57  82 W5        29.89S
MANITOWISH WTR CLEAR     57  57 100 CALM      29.93S
ARBOR VITAE    CLEAR     62  58  87 CALM      29.94R
EAGLE RIVER    CLEAR     56  51  81 CALM      29.93R
LAND O LAKES   PTCLDY    58  52  82 CALM      29.94R
RHINELANDER    CLEAR     57  55  93 W5        29.95S
PHILLIPS       PTCLDY    61  60  96 CALM      29.94R
ANTIGO         PTCLDY    58  55  90 W3        29.95S
TOMAHAWK       PTCLDY    56  55  94 CALM      29.95R
MERRILL        NOT AVBL
$$

WIZ013-073-010300-
NORTHEAST WISCONSIN

CITY           SKY/WX    TMP DP  RH WIND       PRES   REMARKS
IRON MOUNTAIN  PTCLDY    66  51  58 NW8       29.88S
MARINETTE      PTCLDY    70  50  49 CALM      29.88R
OCONTO         PTCLDY    71  53  54 W7        29.89R
$$

WIZ017-030-035>037-045-010300-
CENTRAL WISCONSIN

CITY           SKY/WX    TMP DP  RH WIND       PRES   REMARKS
MEDFORD        CLEAR     66  53  63 W5        29.95S
WAUSAU         PTCLDY    66  55  67 CALM      29.94S
MOSINEE        CLEAR     64  55  72 CALM      29.96S
MARSHFIELD     CLEAR     67  51  56 W5        29.96R
WISC RAPIDS    CLEAR     69  50  50 W6        29.96S
STEVENS POINT  PTCLDY    65  52  62 NE7       29.96R
WAUPACA        MOCLDY    72  53  51 N3        29.95R
SHAWANO        MOCLDY    68  55  63 W3        29.93S
CLINTONVILLE   CLOUDY    68  52  56 NW7       29.93R
$$

WIZ038-039-048-051-010300-
FOX VALLEY

CITY           SKY/WX    TMP DP  RH WIND       PRES   REMARKS
NWS GREEN BAY  CLOUDY    70  53  54 NW8       29.92R
APPLETON       MOCLDY    70  52  52 VRB5      29.94R
OSHKOSH        PTCLDY    72  52  49 W7        29.93R
FOND DU LAC    CLEAR     70  53  54 W6        29.94R
$$

WIZ022-050-052-010300-
EAST CENTRAL WISCONSIN

CITY           SKY/WX    TMP DP  RH WIND       PRES   REMARKS
STURGEON BAY   PTCLDY    70  55  60 NW7       29.91R
MANITOWOC      CLOUDY    74  51  44 MISG      29.91R
SHEBOYGAN      CLEAR     71  53  52 W6        29.92R
$$

LMZ563-521-522-541>543-010300-
LAKESHORE

STATION/POSITION TIME  TEMP    WIND        PRES    VSBY  WAVE
                       AIR SEA DIR/SP/G                  HT/PER
                 (UTC) (F)     (DEG/KT/KT) (MB)    (MI)  (FT/S)
SHEBOYGAN LKSHOR 0200   75     290/ 10/ 12 1013.0R
KEWAUNEE LKSHORE 0100   74     300/  3/  5 1011.4R
ALGOMA MARINA    0112             CALM       N/A
NORTHPORT PIER   0100   73     300/  9/ 11 1010.8S
N MID LAKE BUOY  0150   70 69  300/ 12/ 14 1010.7R         1/ 3
S GREEN BAY BUOY 0130   72 72  280/ 14/ 17 1013.5R
CHAMBERS ISLAND  0100   71     270/  3/  5 1011.5R
MENOMINEE LKSHOR 0100   73     310/  9/ 16 1012.4R
$$


USA.gov is the U.S. government's official web portal to all federal, state and local government web resources and services.